YU7IBS-1 Weather Reports


time (UTC)temp
C
wind
direction
speed
KPH
gust
KPH
rain 1hr
cm
rain 24hr
cm
rain mn
cm
humidity
%
barometer
mb
20260507122747 21 0 0.0 0.0 0.00 0.00 0.00 65 998.2
20260507121247 21 0 0.0 0.0 0.00 0.00 0.00 64 998.1
20260507115746 21 0 0.0 0.0 0.00 0.00 0.00 64 998.6
20260507114244 21 0 0.0 0.0 0.00 0.00 0.00 66 998.3
20260507112745 21 0 0.0 0.0 0.00 0.00 0.00 68 998.4
20260507111245 20 0 0.0 0.0 0.00 0.00 0.00 69 998.3
20260507105744 20 0 0.0 0.0 0.00 0.00 0.00 73 998.7
20260507104245 19 0 0.0 0.0 0.00 0.00 0.00 72 998.3
20260507102744 20 0 0.0 0.0 0.00 0.00 0.00 68 998.7
20260507101245 19 0 0.0 0.0 0.00 0.00 0.00 71 998.3
20260507094244 19 0 0.0 0.0 0.00 0.00 0.00 78 998.6
20260507092751 18 0 0.0 0.0 0.00 0.00 0.00 78 998.5
20260507091244 19 0 0.0 0.0 0.00 0.00 0.00 76 998.5
20260507085747 18 0 0.0 0.0 0.00 0.00 0.00 79 998.5
20260507084244 18 0 0.0 0.0 0.00 0.00 0.00 78 998.5
20260507082747 18 0 0.0 0.0 0.00 0.00 0.00 85 998.5
20260507081244 17 0 0.0 0.0 0.00 0.00 0.00 92 998.5
20260507075744 16 0 0.0 0.0 0.00 0.00 0.00 94 998.5
20260507074244 16 0 0.0 0.0 0.00 0.00 0.00 94 998.5
20260507072743 16 0 0.0 0.0 0.00 0.00 0.00 98 998.6
20260507071244 16 0 0.0 0.0 0.00 0.00 0.00 99 998.5
20260507065744 16 0 0.0 0.0 0.00 0.00 0.00 97 998.5
20260507064244 16 0 0.0 0.0 0.00 0.00 0.00 98 998.5
20260507062745 15 0 0.0 0.0 0.00 0.00 0.00 98 998.5
20260507061244 15 0 0.0 0.0 0.00 0.00 0.00 96 998.5
20260507055744 15 0 0.0 0.0 0.00 0.00 0.00 95 998.5
20260507054243 15 0 0.0 0.0 0.00 0.00 0.00 96 998.5
20260507052744 15 0 0.0 0.0 0.00 0.00 0.00 96 997.9
20260507051244 15 0 0.0 0.0 0.00 0.00 0.00 97 997.5
20260507045744 15 0 0.0 0.0 0.00 0.00 0.00 97 997.7
20260507044245 16 0 0.0 0.0 0.00 0.00 0.00 95 997.3
20260507041249 16 0 0.0 0.0 0.00 0.00 0.00 91 997.3
20260507035743 17 0 0.0 0.0 0.00 0.00 0.00 89 997.3
20260507034244 17 0 0.0 0.0 0.00 0.00 0.00 77 996.4
20260507032744 17 0 0.0 0.0 0.00 0.00 0.00 79 996.7
20260507031244 17 0 0.0 0.0 0.00 0.00 0.00 77 996.3
20260507025744 17 0 0.0 0.0 0.00 0.00 0.00 81 996.7
20260507024244 17 0 0.0 0.0 0.00 0.00 0.00 79 996.3
20260507022744 17 0 0.0 0.0 0.00 0.00 0.00 83 996.7
20260507021244 17 0 0.0 0.0 0.00 0.00 0.00 81 996.3
20260507015744 17 0 0.0 0.0 0.00 0.00 0.00 86 996.6
20260507012744 17 0 0.0 0.0 0.00 0.00 0.00 90 995.8
20260507011244 17 0 0.0 0.0 0.00 0.00 0.00 88 995.3
20260507005744 17 0 0.0 0.0 0.00 0.00 0.00 92 995.7
20260507004244 17 0 0.0 0.0 0.00 0.00 0.00 89 995.3
20260507002744 17 0 0.0 0.0 0.00 0.00 0.00 92 995.7
20260507001244 17 0 0.0 0.0 0.00 0.00 0.00 88 995.3
20260506234243 17 0 0.0 0.0 0.00 0.00 0.00 88 995.3
20260506232745 17 0 0.0 0.0 0.00 0.00 0.00 92 995.7
20260506231244 17 0 0.0 0.0 0.00 0.00 0.00 88 995.3
20260506224243 17 0 0.0 0.0 0.00 0.00 0.00 86 995.3
20260506222743 17 0 0.0 0.0 0.00 0.00 0.00 89 995.7
20260506221243 17 0 0.0 0.0 0.00 0.00 0.00 83 995.3
20260506215744 18 0 0.0 0.0 0.00 0.00 0.00 84 995.7
20260506214244 18 0 0.0 0.0 0.00 0.00 0.00 76 995.1
20260506212743 19 0 0.0 0.0 0.00 0.00 0.00 72 994.8
20260506211244 20 0 0.0 0.0 0.00 0.00 0.00 62 994.3